Year,Month,Day,Hour,Minute,Value (Times are PST for temperature in C)
2015,07,08,00,00,16.80
2015,07,08,00,01,16.80
2015,07,08,00,02,16.80
2015,07,08,00,03,16.80
2015,07,08,00,04,16.70
2015,07,08,00,05,16.70
2015,07,08,00,06,16.70
2015,07,08,00,07,16.70
2015,07,08,00,08,16.70
2015,07,08,00,09,16.60
2015,07,08,00,10,16.60
2015,07,08,00,11,16.60
2015,07,08,00,12,16.60
2015,07,08,00,13,16.50
2015,07,08,00,14,16.50
2015,07,08,00,15,16.50
2015,07,08,00,16,16.40
2015,07,08,00,17,16.40
2015,07,08,00,18,16.40
2015,07,08,00,19,16.40
2015,07,08,00,20,16.30
2015,07,08,00,21,16.30
2015,07,08,00,22,16.30
2015,07,08,00,23,16.20
2015,07,08,00,24,16.20
2015,07,08,00,25,16.20
2015,07,08,00,26,16.20
2015,07,08,00,27,16.10
2015,07,08,00,28,16.10
2015,07,08,00,29,16.10
2015,07,08,00,30,16.10
2015,07,08,00,31,16.00
2015,07,08,00,32,16.00
2015,07,08,00,33,16.00
2015,07,08,00,34,16.00
2015,07,08,00,35,15.90
2015,07,08,00,36,15.90
2015,07,08,00,37,15.90
2015,07,08,00,38,15.90
2015,07,08,00,39,15.80
2015,07,08,00,40,15.80
2015,07,08,00,41,15.80
2015,07,08,00,42,15.80
2015,07,08,00,43,15.80
2015,07,08,00,44,15.80
2015,07,08,00,45,15.80
2015,07,08,00,46,15.70
2015,07,08,00,47,15.70
2015,07,08,00,48,15.70
2015,07,08,00,49,15.70
2015,07,08,00,50,15.70
2015,07,08,00,51,15.70
2015,07,08,00,52,15.70
2015,07,08,00,53,15.70
2015,07,08,00,54,15.70
2015,07,08,00,55,15.70
2015,07,08,00,56,15.70
2015,07,08,00,57,15.70
2015,07,08,00,58,15.70
2015,07,08,00,59,15.70
2015,07,08,01,00,15.70
2015,07,08,01,01,15.70
2015,07,08,01,02,15.70
2015,07,08,01,03,15.70
2015,07,08,01,04,15.70
2015,07,08,01,05,15.70
2015,07,08,01,06,15.70
2015,07,08,01,07,15.70
2015,07,08,01,08,15.70
2015,07,08,01,09,15.70
2015,07,08,01,10,15.70
2015,07,08,01,11,15.70
2015,07,08,01,12,15.70
2015,07,08,01,13,15.70
2015,07,08,01,14,15.70
2015,07,08,01,15,15.70
2015,07,08,01,16,15.60
2015,07,08,01,17,15.60
2015,07,08,01,18,15.60
2015,07,08,01,19,15.60
2015,07,08,01,20,15.60
2015,07,08,01,21,15.60
2015,07,08,01,22,15.60
2015,07,08,01,23,15.60
2015,07,08,01,24,15.60
2015,07,08,01,25,15.60
2015,07,08,01,26,15.60
2015,07,08,01,27,15.50
2015,07,08,01,28,15.50
2015,07,08,01,29,15.50
2015,07,08,01,30,15.50
2015,07,08,01,31,15.50
2015,07,08,01,32,15.50
2015,07,08,01,33,15.50
2015,07,08,01,34,15.50
2015,07,08,01,35,15.50
2015,07,08,01,36,15.50
2015,07,08,01,37,15.40
2015,07,08,01,38,15.40
2015,07,08,01,39,15.40
2015,07,08,01,40,15.40
2015,07,08,01,41,15.40
2015,07,08,01,42,15.40
2015,07,08,01,43,15.40
2015,07,08,01,44,15.40
2015,07,08,01,45,15.40
2015,07,08,01,46,15.40
2015,07,08,01,47,15.40
2015,07,08,01,48,15.40
2015,07,08,01,49,15.40
2015,07,08,01,50,15.40
2015,07,08,01,51,15.40
2015,07,08,01,52,15.30
2015,07,08,01,53,15.30
2015,07,08,01,54,15.30
2015,07,08,01,55,15.30
2015,07,08,01,56,15.30
2015,07,08,01,57,15.20
2015,07,08,01,58,15.20
2015,07,08,01,59,15.20
2015,07,08,02,00,15.20
2015,07,08,02,01,15.20
2015,07,08,02,02,15.10
2015,07,08,02,03,15.10
2015,07,08,02,04,15.00
2015,07,08,02,05,15.00
2015,07,08,02,06,15.00
2015,07,08,02,07,15.00
2015,07,08,02,08,15.00
2015,07,08,02,09,15.00
2015,07,08,02,10,15.00
2015,07,08,02,11,15.00
2015,07,08,02,12,15.00
2015,07,08,02,13,15.00
2015,07,08,02,14,15.00
2015,07,08,02,15,15.00
2015,07,08,02,16,15.00
2015,07,08,02,17,15.00
2015,07,08,02,18,15.00
2015,07,08,02,19,14.90
2015,07,08,02,20,14.90
2015,07,08,02,21,14.90
2015,07,08,02,22,14.90
2015,07,08,02,23,14.90
2015,07,08,02,24,14.90
2015,07,08,02,25,14.90
2015,07,08,02,26,14.90
2015,07,08,02,27,14.90
2015,07,08,02,28,14.90
2015,07,08,02,29,14.90
2015,07,08,02,30,14.90
2015,07,08,02,31,14.90
2015,07,08,02,32,14.90
2015,07,08,02,33,15.00
2015,07,08,02,34,15.00
2015,07,08,02,35,15.00
2015,07,08,02,36,15.00
2015,07,08,02,37,15.00
2015,07,08,02,38,15.00
2015,07,08,02,39,15.00
2015,07,08,02,40,15.00
2015,07,08,02,41,15.00
2015,07,08,02,42,15.00
2015,07,08,02,43,15.00
2015,07,08,02,44,15.00
2015,07,08,02,45,15.00
2015,07,08,02,46,15.00
2015,07,08,02,47,15.00
2015,07,08,02,48,15.00
2015,07,08,02,49,15.00
2015,07,08,02,50,15.00
2015,07,08,02,51,15.00
2015,07,08,02,52,15.00
2015,07,08,02,53,15.00
2015,07,08,02,54,15.00
2015,07,08,02,55,15.00
2015,07,08,02,56,15.00
2015,07,08,02,57,14.90
2015,07,08,02,58,14.90
2015,07,08,02,59,14.90
2015,07,08,03,00,14.80
2015,07,08,03,01,14.80
2015,07,08,03,02,14.80
2015,07,08,03,03,14.80
2015,07,08,03,04,14.80
2015,07,08,03,05,14.80
2015,07,08,03,06,14.80
2015,07,08,03,07,14.70
2015,07,08,03,08,14.70
2015,07,08,03,09,14.70
2015,07,08,03,10,14.70
2015,07,08,03,11,14.70
2015,07,08,03,12,14.70
2015,07,08,03,13,14.70
2015,07,08,03,14,14.70
2015,07,08,03,15,14.70
2015,07,08,03,16,14.70
2015,07,08,03,17,14.70
2015,07,08,03,18,14.60
2015,07,08,03,19,14.60
2015,07,08,03,20,14.60
2015,07,08,03,21,14.60
2015,07,08,03,22,14.60
2015,07,08,03,23,14.60
2015,07,08,03,24,14.60
2015,07,08,03,25,14.60
2015,07,08,03,26,14.60
2015,07,08,03,27,14.60
2015,07,08,03,28,14.60
2015,07,08,03,29,14.50
2015,07,08,03,30,14.50
2015,07,08,03,31,14.50
2015,07,08,03,32,14.50
2015,07,08,03,33,14.50
2015,07,08,03,34,14.40
2015,07,08,03,35,14.40
2015,07,08,03,36,14.40
2015,07,08,03,37,14.40
2015,07,08,03,38,14.40
2015,07,08,03,39,14.40
2015,07,08,03,40,14.40
2015,07,08,03,41,14.40
2015,07,08,03,42,14.40
2015,07,08,03,43,14.40
2015,07,08,03,44,14.40
2015,07,08,03,45,14.40
2015,07,08,03,46,14.40
2015,07,08,03,47,14.30
2015,07,08,03,48,14.30
2015,07,08,03,49,14.30
2015,07,08,03,50,14.30
2015,07,08,03,51,14.30
2015,07,08,03,52,14.30
2015,07,08,03,53,14.30
2015,07,08,03,54,14.30
2015,07,08,03,55,14.30
2015,07,08,03,56,14.30
2015,07,08,03,57,14.30
2015,07,08,03,58,14.30
2015,07,08,03,59,14.30
2015,07,08,04,00,14.20
2015,07,08,04,01,14.20
2015,07,08,04,02,14.20
2015,07,08,04,03,14.20
2015,07,08,04,04,14.20
2015,07,08,04,05,14.20
2015,07,08,04,06,14.20
2015,07,08,04,07,14.20
2015,07,08,04,08,14.10
2015,07,08,04,09,14.10
2015,07,08,04,10,14.10
2015,07,08,04,11,14.10
2015,07,08,04,12,14.10
2015,07,08,04,13,14.10
2015,07,08,04,14,14.10
2015,07,08,04,15,14.00
2015,07,08,04,16,14.00
2015,07,08,04,17,14.00
2015,07,08,04,18,13.90
2015,07,08,04,19,13.90
2015,07,08,04,20,13.90
2015,07,08,04,21,13.90
2015,07,08,04,22,13.90
2015,07,08,04,23,13.90
2015,07,08,04,24,13.90
2015,07,08,04,25,13.90
2015,07,08,04,26,13.90
2015,07,08,04,27,13.90
2015,07,08,04,28,14.00
2015,07,08,04,29,14.00
2015,07,08,04,30,14.00
2015,07,08,04,31,14.00
2015,07,08,04,32,14.00
2015,07,08,04,33,14.00
2015,07,08,04,34,14.00
2015,07,08,04,35,14.10
2015,07,08,04,36,14.10
2015,07,08,04,37,14.20
2015,07,08,04,38,14.20
2015,07,08,04,39,14.20
2015,07,08,04,40,14.20
2015,07,08,04,41,14.20
2015,07,08,04,42,14.20
2015,07,08,04,43,14.20
2015,07,08,04,44,14.20
2015,07,08,04,45,14.20
2015,07,08,04,46,14.20
2015,07,08,04,47,14.20
2015,07,08,04,48,14.20
2015,07,08,04,49,14.20
2015,07,08,04,50,14.20
2015,07,08,04,51,14.20
2015,07,08,04,52,14.20
2015,07,08,04,53,14.20
2015,07,08,04,54,14.20
2015,07,08,04,55,14.20
2015,07,08,04,56,14.20
2015,07,08,04,57,14.20
2015,07,08,04,58,14.20
2015,07,08,04,59,14.20
2015,07,08,05,00,14.20
2015,07,08,05,01,14.20
2015,07,08,05,02,14.10
2015,07,08,05,03,14.10
2015,07,08,05,04,14.10
2015,07,08,05,05,14.10
2015,07,08,05,06,14.10
2015,07,08,05,07,14.10
2015,07,08,05,08,14.00
2015,07,08,05,09,14.00
2015,07,08,05,10,14.00
2015,07,08,05,11,13.90
2015,07,08,05,12,13.90
2015,07,08,05,13,13.90
2015,07,08,05,14,13.90
2015,07,08,05,15,13.80
2015,07,08,05,16,13.80
2015,07,08,05,17,13.80
2015,07,08,05,18,13.80
2015,07,08,05,19,13.80
2015,07,08,05,20,13.80
2015,07,08,05,21,13.80
2015,07,08,05,22,13.80
2015,07,08,05,23,13.70
2015,07,08,05,24,13.70
2015,07,08,05,25,13.70
2015,07,08,05,26,13.70
2015,07,08,05,27,13.70
2015,07,08,05,28,13.70
2015,07,08,05,29,13.70
2015,07,08,05,30,13.70
2015,07,08,05,31,13.70
2015,07,08,05,32,13.70
2015,07,08,05,33,13.70
2015,07,08,05,34,13.70
2015,07,08,05,35,13.70
2015,07,08,05,36,13.70
2015,07,08,05,37,13.70
2015,07,08,05,38,13.70
2015,07,08,05,39,13.70
2015,07,08,05,40,13.70
2015,07,08,05,41,13.70
2015,07,08,05,42,13.70
2015,07,08,05,43,13.70
2015,07,08,05,44,13.70
2015,07,08,05,45,13.70
2015,07,08,05,46,13.70
2015,07,08,05,47,13.70
2015,07,08,05,48,13.70
2015,07,08,05,49,13.60
2015,07,08,05,50,13.60
2015,07,08,05,51,13.60
2015,07,08,05,52,13.60
2015,07,08,05,53,13.60
2015,07,08,05,54,13.60
2015,07,08,05,55,13.60
2015,07,08,05,56,13.60
2015,07,08,05,57,13.60
2015,07,08,05,58,13.60
2015,07,08,05,59,13.60
2015,07,08,06,00,13.70
2015,07,08,06,01,13.70
2015,07,08,06,02,13.70
2015,07,08,06,03,13.70
2015,07,08,06,04,13.70
2015,07,08,06,05,13.70
2015,07,08,06,06,13.70
2015,07,08,06,07,13.60
2015,07,08,06,08,13.60
2015,07,08,06,09,13.60
2015,07,08,06,10,13.60
2015,07,08,06,11,13.70
2015,07,08,06,12,13.70
2015,07,08,06,13,13.70
2015,07,08,06,14,13.70
2015,07,08,06,15,13.70
2015,07,08,06,16,13.70
2015,07,08,06,17,13.70
2015,07,08,06,18,13.70
2015,07,08,06,19,13.70
2015,07,08,06,20,13.70
2015,07,08,06,21,13.80
2015,07,08,06,22,13.80
2015,07,08,06,23,13.80
2015,07,08,06,24,13.80
2015,07,08,06,25,13.80
2015,07,08,06,26,13.80
2015,07,08,06,27,13.80
2015,07,08,06,28,13.80
2015,07,08,06,29,13.80
2015,07,08,06,30,13.80
2015,07,08,06,31,13.80
2015,07,08,06,32,13.90
2015,07,08,06,33,13.90
2015,07,08,06,34,13.90
2015,07,08,06,35,13.90
2015,07,08,06,36,13.90
2015,07,08,06,37,14.00
2015,07,08,06,38,14.00
2015,07,08,06,39,14.00
2015,07,08,06,40,14.00
2015,07,08,06,41,14.10
2015,07,08,06,42,14.10
2015,07,08,06,43,14.10
2015,07,08,06,44,14.10
2015,07,08,06,45,14.10
2015,07,08,06,46,14.20
2015,07,08,06,47,14.20
2015,07,08,06,48,14.20
2015,07,08,06,49,14.20
2015,07,08,06,50,14.20
2015,07,08,06,51,14.30
2015,07,08,06,52,14.30
2015,07,08,06,53,14.30
2015,07,08,06,54,14.30
2015,07,08,06,55,14.30
2015,07,08,06,56,14.30
2015,07,08,06,57,14.30
2015,07,08,06,58,14.40
2015,07,08,06,59,14.40
2015,07,08,07,00,14.40
2015,07,08,07,01,14.40
2015,07,08,07,02,14.50
2015,07,08,07,03,14.50
2015,07,08,07,04,14.60
2015,07,08,07,05,14.60
2015,07,08,07,06,14.60
2015,07,08,07,07,14.60
2015,07,08,07,08,14.70
2015,07,08,07,09,14.70
2015,07,08,07,10,14.70
2015,07,08,07,11,14.70
2015,07,08,07,12,14.80
2015,07,08,07,13,14.80
2015,07,08,07,14,14.80
2015,07,08,07,15,14.90
2015,07,08,07,16,14.90
2015,07,08,07,17,15.00
2015,07,08,07,18,15.00
2015,07,08,07,19,15.00
2015,07,08,07,20,15.00
2015,07,08,07,21,15.00
2015,07,08,07,22,15.00
2015,07,08,07,23,15.00
2015,07,08,07,24,15.00
2015,07,08,07,25,15.00
2015,07,08,07,26,15.00
2015,07,08,07,27,15.10
2015,07,08,07,28,15.20
2015,07,08,07,29,15.20
2015,07,08,07,30,15.30
2015,07,08,07,31,15.30
2015,07,08,07,32,15.40
2015,07,08,07,33,15.40
2015,07,08,07,34,15.50
2015,07,08,07,35,15.60
2015,07,08,07,36,15.60
2015,07,08,07,37,15.70
2015,07,08,07,38,15.70
2015,07,08,07,39,15.80
2015,07,08,07,40,15.90
2015,07,08,07,41,15.90
2015,07,08,07,42,16.00
2015,07,08,07,43,16.10
2015,07,08,07,44,16.10
2015,07,08,07,45,16.20
2015,07,08,07,46,16.30
2015,07,08,07,47,16.30
2015,07,08,07,48,16.40
2015,07,08,07,49,16.50
2015,07,08,07,50,16.60
2015,07,08,07,51,16.70
2015,07,08,07,52,16.70
2015,07,08,07,53,16.80
2015,07,08,07,54,16.90
2015,07,08,07,55,17.00
2015,07,08,07,56,17.00
2015,07,08,07,57,17.10
2015,07,08,07,58,17.20
2015,07,08,07,59,17.20
2015,07,08,08,00,17.30
2015,07,08,08,01,17.30
2015,07,08,08,02,17.40
2015,07,08,08,03,17.50
2015,07,08,08,04,17.50
2015,07,08,08,05,17.60
2015,07,08,08,06,17.70
2015,07,08,08,07,17.70
2015,07,08,08,08,17.80
2015,07,08,08,09,17.80
2015,07,08,08,10,17.90
2015,07,08,08,11,17.90
2015,07,08,08,12,18.00
2015,07,08,08,13,18.00
2015,07,08,08,14,18.10
2015,07,08,08,15,18.10
2015,07,08,08,16,18.10
2015,07,08,08,17,18.20
2015,07,08,08,18,18.20
2015,07,08,08,19,18.30
2015,07,08,08,20,18.30
2015,07,08,08,21,18.30
2015,07,08,08,22,18.30
2015,07,08,08,23,18.30
2015,07,08,08,24,18.40
2015,07,08,08,25,18.40
2015,07,08,08,26,18.40
2015,07,08,08,27,18.30
2015,07,08,08,28,18.30
2015,07,08,08,29,18.30
2015,07,08,08,30,18.30
2015,07,08,08,31,18.30
2015,07,08,08,32,18.20
2015,07,08,08,33,18.20
2015,07,08,08,34,18.30
2015,07,08,08,35,18.30
2015,07,08,08,36,18.30
2015,07,08,08,37,18.30
2015,07,08,08,38,18.30
2015,07,08,08,39,18.30
2015,07,08,08,40,18.30
2015,07,08,08,41,18.30
2015,07,08,08,42,18.30
2015,07,08,08,43,18.30
2015,07,08,08,44,18.30
2015,07,08,08,45,18.30
2015,07,08,08,46,18.30
2015,07,08,08,47,18.30
2015,07,08,08,48,18.40
2015,07,08,08,49,18.40
2015,07,08,08,50,18.40
2015,07,08,08,51,18.40
2015,07,08,08,52,18.40
2015,07,08,08,53,18.40
2015,07,08,08,54,18.40
2015,07,08,08,55,18.40
2015,07,08,08,56,18.40
2015,07,08,08,57,18.30
2015,07,08,08,58,18.30
2015,07,08,08,59,18.30
2015,07,08,09,00,18.30
2015,07,08,09,01,18.30
2015,07,08,09,02,18.20
2015,07,08,09,03,18.20
2015,07,08,09,04,18.20
2015,07,08,09,05,18.20
2015,07,08,09,06,18.20
2015,07,08,09,07,18.20
2015,07,08,09,08,18.20
2015,07,08,09,09,18.20
2015,07,08,09,10,18.20
2015,07,08,09,11,18.20
2015,07,08,09,12,18.20
2015,07,08,09,13,18.20
2015,07,08,09,14,18.20
2015,07,08,09,15,18.20
2015,07,08,09,16,18.20
2015,07,08,09,17,18.20
2015,07,08,09,18,18.20
2015,07,08,09,19,18.20
2015,07,08,09,20,18.20
2015,07,08,09,21,18.30
2015,07,08,09,22,18.30
2015,07,08,09,23,18.30
2015,07,08,09,24,18.40
2015,07,08,09,25,18.40
2015,07,08,09,26,18.40
2015,07,08,09,27,18.50
2015,07,08,09,28,18.50
2015,07,08,09,29,18.60
2015,07,08,09,30,18.60
2015,07,08,09,31,18.70
2015,07,08,09,32,18.70
2015,07,08,09,33,18.70
2015,07,08,09,34,18.80
2015,07,08,09,35,18.80
2015,07,08,09,36,18.80
2015,07,08,09,37,18.80
2015,07,08,09,38,18.80
2015,07,08,09,39,18.90
2015,07,08,09,40,18.90
2015,07,08,09,41,18.90
2015,07,08,09,42,19.00
2015,07,08,09,43,19.00
2015,07,08,09,44,19.00
2015,07,08,09,45,19.00
2015,07,08,09,46,19.10
2015,07,08,09,47,19.10
2015,07,08,09,48,19.10
2015,07,08,09,49,19.20
2015,07,08,09,50,19.20
2015,07,08,09,51,19.20
2015,07,08,09,52,19.20
2015,07,08,09,53,19.20
2015,07,08,09,54,19.20
2015,07,08,09,55,19.20
2015,07,08,09,56,19.10
2015,07,08,09,57,19.10
2015,07,08,09,58,19.10
2015,07,08,09,59,19.10
2015,07,08,10,00,19.10
2015,07,08,10,01,19.10
2015,07,08,10,02,19.20
2015,07,08,10,03,19.20
2015,07,08,10,04,19.20
2015,07,08,10,05,19.30
2015,07,08,10,06,19.30
2015,07,08,10,07,19.30
2015,07,08,10,08,19.40
2015,07,08,10,09,19.40
2015,07,08,10,10,19.40
2015,07,08,10,11,19.40
2015,07,08,10,12,19.40
2015,07,08,10,13,19.40
2015,07,08,10,14,19.40
2015,07,08,10,15,19.40
2015,07,08,10,16,19.40
2015,07,08,10,17,19.40
2015,07,08,10,18,19.40
2015,07,08,10,19,19.40
2015,07,08,10,20,19.40
2015,07,08,10,21,19.40
2015,07,08,10,22,19.40
2015,07,08,10,23,19.50
2015,07,08,10,24,19.50
2015,07,08,10,25,19.60
2015,07,08,10,26,19.60
2015,07,08,10,27,19.60
2015,07,08,10,28,19.70
2015,07,08,10,29,19.70
2015,07,08,10,30,19.70
2015,07,08,10,31,19.70
2015,07,08,10,32,19.80
2015,07,08,10,33,19.80
2015,07,08,10,34,19.80
2015,07,08,10,35,19.90
2015,07,08,10,36,19.90
2015,07,08,10,37,19.90
2015,07,08,10,38,20.00
2015,07,08,10,39,20.00
2015,07,08,10,40,20.00
2015,07,08,10,41,20.00
2015,07,08,10,42,20.00
2015,07,08,10,43,20.00
2015,07,08,10,44,20.00
2015,07,08,10,45,20.00
2015,07,08,10,46,19.90
2015,07,08,10,47,19.90
2015,07,08,10,48,19.90
2015,07,08,10,49,19.90
2015,07,08,10,50,19.80
2015,07,08,10,51,19.80
2015,07,08,10,52,19.70
2015,07,08,10,53,19.70
2015,07,08,10,54,19.60
2015,07,08,10,55,19.60
2015,07,08,10,56,19.60
2015,07,08,10,57,19.60
2015,07,08,10,58,19.60
2015,07,08,10,59,19.60
2015,07,08,11,00,19.50
2015,07,08,11,01,19.60
2015,07,08,11,02,19.60
2015,07,08,11,03,19.60
2015,07,08,11,04,19.60
2015,07,08,11,05,19.70
2015,07,08,11,06,19.70
2015,07,08,11,07,19.70
2015,07,08,11,08,19.70
2015,07,08,11,09,19.70
2015,07,08,11,10,19.80
2015,07,08,11,11,19.80
2015,07,08,11,12,19.90
2015,07,08,11,13,20.00
2015,07,08,11,14,20.10
2015,07,08,11,15,20.20
2015,07,08,11,16,20.30
2015,07,08,11,17,20.40
2015,07,08,11,18,20.50
2015,07,08,11,19,20.50
2015,07,08,11,20,20.50
2015,07,08,11,21,20.50
2015,07,08,11,22,20.40
2015,07,08,11,23,20.40
2015,07,08,11,24,20.30
2015,07,08,11,25,20.30
2015,07,08,11,26,20.30
2015,07,08,11,27,20.30
2015,07,08,11,28,20.30
2015,07,08,11,29,20.30
2015,07,08,11,30,20.30
2015,07,08,11,31,20.30
2015,07,08,11,32,20.30
2015,07,08,11,33,20.20
2015,07,08,11,34,20.20
2015,07,08,11,35,20.20
2015,07,08,11,36,20.20
2015,07,08,11,37,20.20
2015,07,08,11,38,20.20
2015,07,08,11,39,20.20
2015,07,08,11,40,20.20
2015,07,08,11,41,20.20
2015,07,08,11,42,20.20
2015,07,08,11,43,20.10
2015,07,08,11,44,20.10
2015,07,08,11,45,20.20
2015,07,08,11,46,20.20
2015,07,08,11,47,20.20
2015,07,08,11,48,20.20
2015,07,08,11,49,20.20
2015,07,08,11,50,20.30
2015,07,08,11,51,20.30
2015,07,08,11,52,20.40
2015,07,08,11,53,20.40
2015,07,08,11,54,20.50
2015,07,08,11,55,20.60
2015,07,08,11,56,20.60
2015,07,08,11,57,20.70
2015,07,08,11,58,20.80
2015,07,08,11,59,20.80
2015,07,08,12,00,20.90
2015,07,08,12,01,20.90
2015,07,08,12,02,21.00
2015,07,08,12,03,21.00
2015,07,08,12,04,21.00
2015,07,08,12,05,20.90
2015,07,08,12,06,20.90
2015,07,08,12,07,20.90
2015,07,08,12,08,21.00
2015,07,08,12,09,21.00
2015,07,08,12,10,21.00
2015,07,08,12,11,21.00
2015,07,08,12,12,21.00
2015,07,08,12,13,20.90
2015,07,08,12,14,20.90
2015,07,08,12,15,20.90
2015,07,08,12,16,20.80
2015,07,08,12,17,20.80
2015,07,08,12,18,20.80
2015,07,08,12,19,20.80
2015,07,08,12,20,20.80
2015,07,08,12,21,20.80
2015,07,08,12,22,20.70
2015,07,08,12,23,20.70
2015,07,08,12,24,20.70
2015,07,08,12,25,20.80
2015,07,08,12,26,20.80
2015,07,08,12,27,20.80
2015,07,08,12,28,20.80
2015,07,08,12,29,20.80
2015,07,08,12,30,20.70
2015,07,08,12,31,20.70
2015,07,08,12,32,20.60
2015,07,08,12,33,20.50
2015,07,08,12,34,20.50
2015,07,08,12,35,20.50
2015,07,08,12,36,20.40
2015,07,08,12,37,20.40
2015,07,08,12,38,20.30
2015,07,08,12,39,20.30
2015,07,08,12,40,20.30
2015,07,08,12,41,20.30
2015,07,08,12,42,20.30
2015,07,08,12,43,20.30
2015,07,08,12,44,20.30
2015,07,08,12,45,20.30
2015,07,08,12,46,20.30
2015,07,08,12,47,20.30
2015,07,08,12,48,20.30
2015,07,08,12,49,20.40
2015,07,08,12,50,20.40
2015,07,08,12,51,20.50
2015,07,08,12,52,20.60
2015,07,08,12,53,20.60
2015,07,08,12,54,20.60
2015,07,08,12,55,20.70
2015,07,08,12,56,20.70
2015,07,08,12,57,20.70
2015,07,08,12,58,20.80
2015,07,08,12,59,20.90
2015,07,08,13,00,20.90
2015,07,08,13,01,21.00
2015,07,08,13,02,21.00
2015,07,08,13,03,21.00
2015,07,08,13,04,21.00
2015,07,08,13,05,21.00
2015,07,08,13,06,21.00
2015,07,08,13,07,21.00
2015,07,08,13,08,21.10
2015,07,08,13,09,21.10
2015,07,08,13,10,21.20
2015,07,08,13,11,21.20
2015,07,08,13,12,21.30
2015,07,08,13,13,21.40
2015,07,08,13,14,21.50
2015,07,08,13,15,21.60
2015,07,08,13,16,21.70
2015,07,08,13,17,21.80
2015,07,08,13,18,21.90
2015,07,08,13,19,22.00
2015,07,08,13,20,22.00
2015,07,08,13,21,22.10
2015,07,08,13,22,22.20
2015,07,08,13,23,22.20
2015,07,08,13,24,22.30
2015,07,08,13,25,22.30
2015,07,08,13,26,22.30
2015,07,08,13,27,22.40
2015,07,08,13,28,22.40
2015,07,08,13,29,22.50
2015,07,08,13,30,22.60
2015,07,08,13,31,22.60
2015,07,08,13,32,22.70
2015,07,08,13,33,22.80
2015,07,08,13,34,22.90
2015,07,08,13,35,22.90
2015,07,08,13,36,22.90
2015,07,08,13,37,22.90
2015,07,08,13,38,22.90
2015,07,08,13,39,22.90
2015,07,08,13,40,22.80
2015,07,08,13,41,22.80
2015,07,08,13,42,22.80
2015,07,08,13,43,22.80
2015,07,08,13,44,22.80
2015,07,08,13,45,22.80
2015,07,08,13,46,22.80
2015,07,08,13,47,22.80
2015,07,08,13,48,22.90
2015,07,08,13,49,23.00
2015,07,08,13,50,23.10
2015,07,08,13,51,23.10
2015,07,08,13,52,23.20
2015,07,08,13,53,23.20
2015,07,08,13,54,23.20
2015,07,08,13,55,23.30
2015,07,08,13,56,23.30
2015,07,08,13,57,23.30
2015,07,08,13,58,23.30
2015,07,08,13,59,23.30
2015,07,08,14,00,23.40
2015,07,08,14,01,23.40
2015,07,08,14,02,23.50
2015,07,08,14,03,23.50
2015,07,08,14,04,23.50
2015,07,08,14,05,23.40
2015,07,08,14,06,23.40
2015,07,08,14,07,23.30
2015,07,08,14,08,23.20
2015,07,08,14,09,23.00
2015,07,08,14,10,22.90
2015,07,08,14,11,22.90
2015,07,08,14,12,22.80
2015,07,08,14,13,22.90
2015,07,08,14,14,22.90
2015,07,08,14,15,23.00
2015,07,08,14,16,23.10
2015,07,08,14,17,23.20
2015,07,08,14,18,23.30
2015,07,08,14,19,23.30
2015,07,08,14,20,23.30
2015,07,08,14,21,23.30
2015,07,08,14,22,23.40
2015,07,08,14,23,23.40
2015,07,08,14,24,23.40
2015,07,08,14,25,23.50
2015,07,08,14,26,23.60
2015,07,08,14,27,23.60
2015,07,08,14,28,23.70
2015,07,08,14,29,23.90
2015,07,08,14,30,24.00
2015,07,08,14,31,24.10
2015,07,08,14,32,24.20
2015,07,08,14,33,24.30
2015,07,08,14,34,24.40
2015,07,08,14,35,24.50
2015,07,08,14,36,24.50
2015,07,08,14,37,24.50
2015,07,08,14,38,24.50
2015,07,08,14,39,24.60
2015,07,08,14,40,24.60
2015,07,08,14,41,24.60
2015,07,08,14,42,24.60
2015,07,08,14,43,24.60
2015,07,08,14,44,24.70
2015,07,08,14,45,24.70
2015,07,08,14,46,24.70
2015,07,08,14,47,24.60
2015,07,08,14,48,24.60
2015,07,08,14,49,24.60
2015,07,08,14,50,24.50
2015,07,08,14,51,24.40
2015,07,08,14,52,24.40
2015,07,08,14,53,24.30
2015,07,08,14,54,24.20
2015,07,08,14,55,24.10
2015,07,08,14,56,24.10
2015,07,08,14,57,24.00
2015,07,08,14,58,24.00
2015,07,08,14,59,23.90
2015,07,08,15,00,23.90
2015,07,08,15,01,24.00
2015,07,08,15,02,24.00
2015,07,08,15,03,24.10
2015,07,08,15,04,24.00
2015,07,08,15,05,24.00
2015,07,08,15,06,24.00
2015,07,08,15,07,23.90
2015,07,08,15,08,23.90
2015,07,08,15,09,23.90
2015,07,08,15,10,23.90
2015,07,08,15,11,23.90
2015,07,08,15,12,23.90
2015,07,08,15,13,24.00
2015,07,08,15,14,24.10
2015,07,08,15,15,24.10
2015,07,08,15,16,24.20
2015,07,08,15,17,24.20
2015,07,08,15,18,24.20
2015,07,08,15,19,24.20
2015,07,08,15,20,24.10
2015,07,08,15,21,24.20
2015,07,08,15,22,24.20
2015,07,08,15,23,24.20
2015,07,08,15,24,24.20
2015,07,08,15,25,24.20
2015,07,08,15,26,24.20
2015,07,08,15,27,24.20
2015,07,08,15,28,24.20
2015,07,08,15,29,24.20
2015,07,08,15,30,24.20
2015,07,08,15,31,24.20
2015,07,08,15,32,24.20
2015,07,08,15,33,24.30
2015,07,08,15,34,24.30
2015,07,08,15,35,24.30
2015,07,08,15,36,24.30
2015,07,08,15,37,24.30
2015,07,08,15,38,24.30
2015,07,08,15,39,24.30
2015,07,08,15,40,24.40
2015,07,08,15,41,24.40
2015,07,08,15,42,24.50
2015,07,08,15,43,24.60
2015,07,08,15,44,24.70
2015,07,08,15,45,24.80
2015,07,08,15,46,24.80
2015,07,08,15,47,24.90
2015,07,08,15,48,25.00
2015,07,08,15,49,25.10
2015,07,08,15,50,25.20
2015,07,08,15,51,25.30
2015,07,08,15,52,25.30
2015,07,08,15,53,25.40
2015,07,08,15,54,25.40
2015,07,08,15,55,25.30
2015,07,08,15,56,25.30
2015,07,08,15,57,25.30
2015,07,08,15,58,25.30
2015,07,08,15,59,25.30
2015,07,08,16,00,25.20
2015,07,08,16,01,25.20
2015,07,08,16,02,25.20
2015,07,08,16,03,25.20
2015,07,08,16,04,25.20
2015,07,08,16,05,25.20
2015,07,08,16,06,25.10
2015,07,08,16,07,25.10
2015,07,08,16,08,25.00
2015,07,08,16,09,24.90
2015,07,08,16,10,24.90
2015,07,08,16,11,24.90
2015,07,08,16,12,24.90
2015,07,08,16,13,24.90
2015,07,08,16,14,24.90
2015,07,08,16,15,24.80
2015,07,08,16,16,24.80
2015,07,08,16,17,24.70
2015,07,08,16,18,24.70
2015,07,08,16,19,24.70
2015,07,08,16,20,24.70
2015,07,08,16,21,24.70
2015,07,08,16,22,24.80
2015,07,08,16,23,24.80
2015,07,08,16,24,24.80
2015,07,08,16,25,24.80
2015,07,08,16,26,24.80
2015,07,08,16,27,24.70
2015,07,08,16,28,24.70
2015,07,08,16,29,24.70
2015,07,08,16,30,24.70
2015,07,08,16,31,24.70
2015,07,08,16,32,24.70
2015,07,08,16,33,24.60
2015,07,08,16,34,24.60
2015,07,08,16,35,24.60
2015,07,08,16,36,24.60
2015,07,08,16,37,24.60
2015,07,08,16,38,24.70
2015,07,08,16,39,24.70
2015,07,08,16,40,24.70
2015,07,08,16,41,24.80
2015,07,08,16,42,24.80
2015,07,08,16,43,24.90
2015,07,08,16,44,25.00
2015,07,08,16,45,25.00
2015,07,08,16,46,25.10
2015,07,08,16,47,25.20
2015,07,08,16,48,25.20
2015,07,08,16,49,25.20
2015,07,08,16,50,25.20
2015,07,08,16,51,25.10
2015,07,08,16,52,25.10
2015,07,08,16,53,25.10
2015,07,08,16,54,25.00
2015,07,08,16,55,24.90
2015,07,08,16,56,24.90
2015,07,08,16,57,25.00
2015,07,08,16,58,25.00
2015,07,08,16,59,25.00
2015,07,08,17,00,25.10
2015,07,08,17,01,25.10
2015,07,08,17,02,25.20
2015,07,08,17,03,25.20
2015,07,08,17,04,25.10
2015,07,08,17,05,25.10
2015,07,08,17,06,25.10
2015,07,08,17,07,25.10
2015,07,08,17,08,25.00
2015,07,08,17,09,24.90
2015,07,08,17,10,24.90
2015,07,08,17,11,24.80
2015,07,08,17,12,24.70
2015,07,08,17,13,24.70
2015,07,08,17,14,24.70
2015,07,08,17,15,24.70
2015,07,08,17,16,24.70
2015,07,08,17,17,24.70
2015,07,08,17,18,24.80
2015,07,08,17,19,24.90